HAIYANG-2B (43655 NORAD) Tracking and Keplerian Element Data

This shows tracking and keplerian element data for the satellite.

Feedback or suggestion? Click here.




ElementValue
Catalog43655
NameHAIYANG-2B
Epoch Orbit304
Epoch Day320.04515917
Epoch Year2018
RAAN325.16
Inclination99.3513
Eccentricity0.0001613
Argument of Perigee60.3465
Mean Anonmoly299.7856
Mean Motion13.79294033
Decay Rate-2.38E-06
L11 43655U 18081A 18320.04515917 -.00000238 00000-0 -18892-3 0 9993
L22 43655 99.3513 325.1600 0001613 60.3465 299.7856 13.79294033 3041

Live tracking and technical data element details for HAIYANG-2B (NORAD 43655). HAIYANG-2B can be tracked NOW for your location showing map with azimuth and elevation plus other details from your city location.

Track the satellite on the map from your city or location and see movement details for azimuth, elevation, latitude, longitude, range, height, and movement on the map or in text.







IsCatalogInMostPopularTable: catalog: 43655, numindb: 8
Update: records affected: 1



GetName: 43655 HAIYANG-2B

Hit Count: updated at: Sat, 17 Nov 2018 02:17:08 GMT